User: anonymous   Login
Location: Clinton NY
(43.0598°N, 75.3602°W)
Time: 02:45:24
(UTC-04:00)
Language:

ISS - Orbit

View from above orbital plane
View from above orbital plane
View from above satellite
View from above satellite

Ground track
Ground track

The orbit data is extracted from the following two-line orbital elements,

1 25544U 98067A   16210.16613731  .00001069  00000-0  22802-4 0  9992
2 25544  51.6438 213.5659 0002163  84.3385  15.6013 15.54888572 11363
Epoch (UTC): 28 July 2016 03:59:14
Eccentricity: 0.0002163
inclination: 51.6438°
perigee height: 401 km
apogee height: 404 km
right ascension of ascending node: 213.5659°
argument of perigee: 84.3385°
revolutions per day: 15.54888572
mean anomaly at epoch: 15.6013°
orbit number at epoch: 1136

The dashed part of the orbit path shows where the satellite is in the earth's shadow,  

DLR